This demonstration page uses our WeatherBlox Daily Observations layout. Learn more.

Left ArrowRight Arrow

30.21309, -93.2044

Hourly Observations for July 30, 2021

Temp ( °F °C ) Dew Point ( °F °C ) Humidity (%) Winds ( mph kmh ) Pressure ( in mb ) Visibility ( mi km ) Precip ( " mm )
12:15 am 00:15 Clear 78 25.7 75 23.8 89 89 Calm 30.02 1017 10 16 0.00 0.00
12:35 am 00:35 Clear 79 25.9 75 23.9 89 89 NNW 5 7 30.01 1016 10 16 0.00 0.00
12:55 am 00:55 Clear 79 25.9 75 23.8 88 88 Calm 30.01 1016 10 16 0.00 0.00
1:15 am 01:15 Clear 79 25.9 75 23.7 88 88 Calm 30.01 1016 10 16 0.00 0.00
1:35 am 01:35 Clear 78 25.8 75 23.8 89 89 Calm 30.01 1016 10 16 0.00 0.00
1:55 am 01:55 Clear 78 25.5 75 23.7 90 90 Calm 30.01 1016 10 16 0.00 0.00
2:15 am 02:15 Clear 77 25.1 75 23.9 93 93 Calm 30.00 1016 10 16 0.00 0.00
2:35 am 02:35 Clear 78 25.3 75 24 93 93 Calm 30.01 1016 10 16 0.00 0.00
2:55 am 02:55 Clear 77 25.2 75 23.8 92 92 Calm 30.01 1016 10 16 0.00 0.00
3:15 am 03:15 Clear 78 25.4 75 23.8 91 91 Calm 30.01 1016 10 16 0.00 0.00
3:35 am 03:35 Clear 78 25.3 74 23.6 90 90 Calm 30.01 1016 10 16 0.00 0.00
3:55 am 03:55 Clear 78 25.5 74 23.6 89 89 Calm 30.02 1017 10 16 0.00 0.00
4:15 am 04:15 Clear 78 25.4 74 23.3 88 88 Calm 30.03 1017 10 16 0.00 0.00
4:35 am 04:35 Clear 77 25 74 23.6 92 92 NNE 3 6 30.04 1017 10 16 0.00 0.00
4:55 am 04:55 Clear 77 25.1 74 23.6 91 91 Calm 30.05 1018 10 16 0.00 0.00
5:15 am 05:15 Clear 77 25 74 23.6 92 92 Calm 30.05 1018 10 16 0.00 0.00
5:35 am 05:35 Clear 77 25 74 23.6 92 92 Calm 30.05 1018 10 16 0.00 0.00
6:00 am 06:00 Mostly Clear 77 25 75 24 94 94 Calm 30.06 1018 10 16 0.00 0.00
6:55 am 06:55 Mostly Sunny 77 25 75 24 94 94 Calm 30.06 1018 10 16 0.00 0.00
8:50 am 08:50 Mostly Sunny 82 28 73 23 74 74 Calm 30.07 1018 10 16 0.00 0.00
9:50 am 09:50 Mostly Sunny 86 30 75 24 70 70 Calm 30.06 1018 7 11 0.00 0.00
10:50 am 10:50 Partly Cloudy 88 31 77 25 70 70 Calm 30.08 1019 7 11 0.00 0.00
11:50 am 11:50 Partly Cloudy 90 32 75 24 63 63 Calm 30.08 1019 7 11 0.00 0.00
12:55 pm 12:55 Mostly Cloudy 90 32 75 24 63 63 Calm 30.06 1018 7 11 0.00 0.00
1:50 pm 13:50 Mostly Cloudy 90 32 75 24 63 63 Calm 30.06 1018 7 11 0.00 0.00
2:55 pm 14:55 Partly Cloudy 93 34 73 23 53 53 Calm 30.03 1017 7 11 0.00 0.00
3:50 pm 15:50 Mostly Cloudy 91 33 75 24 59 59 Calm 30.03 1017 10 16 0.00 0.00
4:50 pm 16:50 Partly Cloudy 93 34 75 24 56 56 SW 3 6 30.03 1017 10 16 0.00 0.00
5:50 pm 17:50 Mostly Cloudy 91 33 75 24 59 59 WSW 7 11 30.01 1016 10 16 0.00 0.00
6:50 pm 18:50 Partly Cloudy 91 33 75 24 59 59 S 10 17 30.00 1016 10 16 0.00 0.00
7:55 pm 19:55 Mostly Sunny 88 31 75 24 66 66 SSW 8 13 30.01 1016 10 16 0.00 0.00
8:55 pm 20:55 Mostly Clear 86 30 75 24 70 70 SW 7 11 30.01 1016 10 16 0.00 0.00
9:50 pm 21:50 Mostly Clear 86 30 75 24 70 70 SW 8 13 30.03 1017 10 16 0.00 0.00
10:15 pm 22:15 Clear 85 29.6 76 24.7 75 75 SW 5 7 30.04 1017 10 16 0.00 0.00
10:35 pm 22:35 Clear 85 29.6 76 24.6 75 75 SW 6 9 30.04 1017 10 16 0.00 0.00
10:55 pm 22:55 Clear 85 29.4 76 24.5 75 75 WSW 6 9 30.05 1018 10 16 0.00 0.00
11:15 pm 23:15 Clear 85 29.3 76 24.5 75 75 SW 6 9 30.04 1017 10 16 0.00 0.00
11:35 pm 23:35 Clear 84 29.1 76 24.6 77 77 SW 5 7 30.04 1017 10 16 0.00 0.00
11:55 pm 23:55 Clear 85 29.2 76 24.5 76 76 WSW 5 7 30.04 1017 10 16 0.00 0.00

Powered by AerisWeather